Location: Hains Lake
(37.8540°N, 99.8578°W)
Time: 03:42:03
(UTC+00:00)

Vanguard 1 - Pass Details

Date: 07 December 2021
Orbit: 652 x 3830 km, 34.2° (Epoch: 21 January)

Event Time Altitude Azimuth Distance (km) Brightness Sun altitude
Rises 03:23:17 0° 207° (SSW) 5,955 14.2 -47.2°
Reaches altitude 10° 03:27:06 10° 199° (SSW) 5,337 13.8 -48.0°
Enters shadow 03:34:04 28° 178° (S) 4,590 13.2 -49.3°
